Regional & State Weather Roundups


691 
ASUS41 KLWX 060610
RWRLWX
REGIONAL WEATHER ROUNDUP
NATIONAL WEATHER SERVICE BALTIMORE MD/WASHINGTON DC
200 AM EDT MON JUL 06 2015
Note: "FAIR" indicates few or no clouds below 12,000 feet
with no significant weather and/or obstructions to visibility.
 TC=TEMPERATURE CELSIUS
 * =Non NWS site. Station does not report precipitation (e.g. rain,
    snow, etc.), thunder, or fog.
DCZ001-MDZ009-015-VAZ040>042-051-053>054-060700-
WASHINGTON METRO
  
CITY           SKY/WX    TMP DP  RH WIND       PRES   REMARKS
WASHINGTON NAT LGT RAIN  77  72  84 S3        30.12S                  
DULLES         CLOUDY    72  71  97 CALM      30.12S                  
ANDREWS AFB    CLOUDY    73  72  99 E2        30.12S                  
FT BELVOIR     CLOUDY    72  70  95 CALM      30.11S FOG              
QUANTICO       CLOUDY    76  71  85 S7        30.11F                  
COLLEGE PARK*  CLOUDY    72  72 100 CALM      30.12S                  
LEESBURG*      DRIZZLE   73  73 100 S7        30.12F                  
MANASSAS*      CLOUDY    73  73 100 CALM        N/A                   
GAITHERSBURG*  CLOUDY    72  68  88 CALM      30.16F                  
$$
MDZ006>007-011-014-060700-
BALTIMORE METRO
  
CITY           SKY/WX    TMP DP  RH WIND       PRES   REMARKS
BWI AIRPORT    LGT RAIN  75  71  87 E6        30.12S                  
MD SCIENCE CTR   N/A     76  71  85 MISG      30.13S                  
MARTIN STATE   CLOUDY    73  72  94 CALM      30.14S                  
ANNAPOLIS      CLOUDY    76  72  87 SE9       30.11S                  
FORT MEADE*    CLOUDY    70  68  94 CALM      30.14S                  
$$
MDZ012-015-019>023-060700-
MARYLAND EASTERN SHORE
  
CITY           SKY/WX    TMP DP  RH WIND       PRES   REMARKS
OCEAN CITY     CLOUDY    75  72  90 SE6       30.12F                  
SALISBURY      CLOUDY    71  70  96 SE3       30.12F                  
BAY BRIDGE AP*   N/A     75  72  88 SE8       30.12S                  
CAMBRIDGE*     CLOUDY    73  70  88 E3        30.11F                  
EASTON*        CLOUDY   N/A N/A N/A SE3       30.16S                  
$$
MDZ017>025-060700-
SOUTHERN MARYLAND
  
CITY           SKY/WX    TMP DP  RH WIND       PRES   REMARKS
PATUXENT RIVER CLOUDY    76  71  85 SE9       30.10F                  
ST INIGOES     NOT AVBL                                               
LEONARDTOWN*   CLOUDY    73  70  88 CALM      30.12F                  
$$
MDZ003>005-060700-
NORTH CENTRAL MARYLAND
  
CITY           SKY/WX    TMP DP  RH WIND       PRES   REMARKS
FREDERICK*     LGT RAIN  72  72 100 CALM      30.15S                  
HAGERSTOWN APT CLOUDY    74  69  85 SE7       30.12F                  
WESTMINSTER*   CLOUDY    72  70  94 CALM      30.15S                  
$$
MDZ501>502-060700-
WESTERN MARYLAND
  
CITY           SKY/WX    TMP DP  RH WIND       PRES   REMARKS
OAKLAND*       CLOUDY    64 N/A N/A SE9       30.18S HAZE             
CUMBERLAND*    CLOUDY    73  70  88 CALM      30.14S                  
$$
VAZ025>031-060700-
SHENANDOAH VALLEY
  
CITY           SKY/WX    TMP DP  RH WIND       PRES   REMARKS
WINCHESTER*    RAIN      72  70  94 CALM      30.12S                  
FRONT ROYAL*   MOCLDY    68  68 100 CALM      30.10F                  
LURAY*         MOCLDY    72  72 100 CALM      30.11F FOG              
NEW MARKET*    CLOUDY    69  69  98 NE5       30.09F                  
STAUNTON*      CLOUDY    73  71  94 CALM      30.13S FOG              
WAYNESBORO*    MOCLDY    68  68  99 S6        30.12F                  
$$
WVZ021-048>050-054>055-060700-
EASTERN WEST VIRGINIA PANHANDLE
  
CITY           SKY/WX    TMP DP  RH WIND       PRES   REMARKS
MARTINSBURG    LGT RAIN  72  69  90 CALM      30.12S FOG              
PETERSBURG*    CLOUDY    69  66  92 CALM      30.11F FOG              
$$
VAZ036>039-050-060700-
CENTRAL FOOTHILLS
  
CITY           SKY/WX    TMP DP  RH WIND       PRES   REMARKS
CHARLOTTESVILL CLOUDY    71  69  93 CALM      30.11S                  
CULPEPER*      CLOUDY    70  70  99 CALM      30.12S FOG              
ORANGE*        LGT RAIN  72  70  94 CALM      30.13S                  
GORDONSVILLE*  CLOUDY    70  70 100 CALM      30.10F FOG              
WARRENTON*     MOCLDY    72  72 100 CALM      30.11S FOG              
$$
VAZ055>057-060700-
NORTH AND CENTRAL PIEDMONT
  
CITY           SKY/WX    TMP DP  RH WIND       PRES   REMARKS
FREDERICKSBRG* CLOUDY    74  74 100 CALM      30.10S                  
STAFFORD*      CLOUDY    72  70  94 CALM      30.15S FOG              
$$
NCZ024-NYZ072-PAZ021-071-VAZ022-071-060700-
OTHER REGIONAL OBSERVATIONS
  
CITY           SKY/WX    TMP DP  RH WIND       PRES   REMARKS
NEW YORK CITY  MOCLDY    74  65  73 W3        30.17S                  
PHILADELPHIA   CLOUDY    72  67  84 CALM      30.15S                  
PITTSBURGH     CLOUDY    73  65  75 SE5       30.08F                  
ROANOKE        CLOUDY    70  69  97 SE8       30.10F                  
RICHMOND       LGT RAIN  73  70  90 S5        30.12R                  
RALEIGH        MOCLDY    71  69  93 SE5       30.09F                  
$$
ANZ530>537-060700-
MARINE OBSERVATIONS
  
STATION/POSITION TIME  TEMP    WIND        PRES
                       AIR SEA DIR/SP/G
                 (UTC) (F)     (DEG/KT/KT) (MB)
THOMAS PT LIGHT  NOT AVBL
BALT KEY BRIDGE  0500   76     100/  7/  8 1019.8F
COVE POINT       0500   76     180/ 11/ 13 1020.5F
LEWISETTA        0500   76 80  140/  7/  8 1019.2F
SOLOMONS ISLAND  0500      81                N/A
PINEY POINT      0500          150/ 10/ 11   N/A
$$